Location: Detroit
(42.3310°N, 83.0460°W)
Time: 19:44:35
(UTC-04:00)

A-11 Canister half - Pass Details

Date: 08 February 2023
Orbit: 1526 x 1682 km, 47.3° (Epoch: 29 March)

Event Time Altitude Azimuth Distance (km) Brightness Sun altitude
Rises 01:54:55 0° 167° (SSE) 4,701 - -59.0°
Reaches altitude 10° 02:01:31 10° 134° (SE) 3,698 - -58.3°
Maximum altitude 02:03:30 11° 121° (ESE) 3,629 - -58.1°
Drops below altitude 10° 02:05:29 10° 109° (ESE) 3,693 - -57.8°
Exits shadow 02:07:46 - 95° (E) 3,920 11.3 -57.6°
Sets 02:12:00 0° 76° (ENE) 4,678 11.9 -57.1°
